Regional Weather Roundup
Issued by NWS

Home | Current Version | Previous Version | Text Only | Print | Product List | Glossary Off
Versions: 1 2 3 4 5 6 7 8 9 10 11 12 13 14 15 16 17 18 19 20 21 22 23 24 25 26 27 28 29 30 31 32 33 34 35 36 37 38 39 40 41 42 43 44 45 46 47 48 49 50

000
ASUS45 KPSR 241810
RWRAZ

ARIZONA HOURLY REGIONAL WEATHER ROUNDUP
NATIONAL WEATHER SERVICE PHOENIX AZ
1100 AM MST SAT SEP 24 2016

NOTE: FAIR INDICATES FEW OR NO CLOUDS BELOW 12,000 FEET WITH NO
SIGNIFICANT WEATHER AND/OR OBSTRUCTIONS TO VISIBILITY.

AZZ001>003-036-241900-
NORTHWEST ARIZONA

CITY           SKY/WX    TMP DP  RH WIND       PRES   REMARKS
BULLHEAD CITY  SUNNY     81  30  16 N15G23    30.05F
KINGMAN        SUNNY     73  32  22 N10       30.17S
6HR MIN TEMP:  43; 6HR MAX TEMP:  73;

$$

AZZ004>008-015-016-018-241900-
NORTH CENTRAL ARIZONA

CITY           SKY/WX    TMP DP  RH WIND       PRES   REMARKS
GRAND CANYON   SUNNY     59  29  31 CALM      30.27R
6HR MIN TEMP:  31; 6HR MAX TEMP:  60;

PRESCOTT       SUNNY     65  32  29 NW7       30.20F
6HR MIN TEMP:  41; 6HR MAX TEMP:  65;

FLAGSTAFF      SUNNY     59  25  27 VRB3      30.25F
6HR MIN TEMP:  30; 6HR MAX TEMP:  59;

PAYSON         SUNNY     68  23  18 VRB6      30.20S
PAGE           SUNNY     65  34  31 NW7       30.19S
6HR MIN TEMP:  50; 6HR MAX TEMP:  65;

$$

AZZ009>014-017-241900-
NORTHEAST ARIZONA

CITY           SKY/WX    TMP DP  RH WIND       PRES   REMARKS
WINSLOW        SUNNY     67  28  23 N9        30.20S
6HR MIN TEMP:  38; 6HR MAX TEMP:  67;

SAINT JOHNS    SUNNY     63  26  24 E3        30.21S
6HR MIN TEMP:  33; 6HR MAX TEMP:  63;

WINDOW ROCK    SUNNY     60  29  30 W8        30.24S
6HR MIN TEMP:  28; 6HR MAX TEMP:  61;

SHOW LOW       SUNNY     59  19  21 NW7       30.24F
$$

AZZ023-241900-
GREATER PHOENIX AREA

CITY           SKY/WX    TMP DP  RH WIND       PRES   REMARKS
PHOENIX        SUNNY     79  31  17 CALM      30.01S
6HR MIN TEMP:  62; 6HR MAX TEMP:  80;

BUCKEYE        SUNNY     77  39  25 SE5       30.04S
GLENDALE       SUNNY     81  32  17 VRB5      30.03F
LUKE AFB       SUNNY     81  38  21 SE5       30.00F
6HR MIN TEMP:  58; 6HR MAX TEMP:  81;

DEER VALLEY    SUNNY     79  31  17 SW7       30.02S
6HR MIN TEMP:  59; 6HR MAX TEMP:  79;

SCOTTSDALE     SUNNY     79  27  14 VRB5      30.04S
6HR MIN TEMP:  59; 6HR MAX TEMP:  79;

MESA-FALCON    SUNNY    N/A N/A N/A W9        30.00F
MESA-GATEWAY   SUNNY     77  28  16 CALM      30.03F
CHANDLER       SUNNY     79  28  15 VRB5      30.03F
$$

AZZ027-028-241900-
SOUTHWEST MARICOPA COUNTY AND PINAL COUNTY

CITY           SKY/WX    TMP DP  RH WIND       PRES   REMARKS
CASA GRANDE    SUNNY     79  28  15 CALM      30.05S
6HR MIN TEMP:  54; 6HR MAX TEMP:  79;

GILA BEND      FAIR      80  30  16 NW6       30.01F
6HR MIN TEMP:  56; 6HR MAX TEMP:  80;

$$

AZZ503-504-507>509-241900-
SOUTHEAST ARIZONA

CITY           SKY/WX    TMP DP  RH WIND       PRES   REMARKS
TUCSON         SUNNY     80  41  24 VRB3      30.08F
6HR MIN TEMP:  60; 6HR MAX TEMP:  81;

DAVIS-MONTHAN  SUNNY     78  42  28 VRB2      30.07F
6HR MIN TEMP:  58; 6HR MAX TEMP:  78;

RYAN FIELD     SUNNY     81  34  18 CALM      30.07F
NOGALES        SUNNY     76  50  40 MISG      30.13F
6HR MIN TEMP:  54; 6HR MAX TEMP:  76;

SIERRA VISTA   PTSUNNY   73  48  40 SW13      30.17F
6HR MIN TEMP:  56; 6HR MAX TEMP:  73;

DOUGLAS        SUNNY     76  49  38 E7        30.13F
6HR MIN TEMP:  50; 6HR MAX TEMP:  76;

SAFFORD        SUNNY     73  39  29 VRB6      30.09F
$$

AZZ020-021-025-026-031-241900-
SOUTHWEST ARIZONA

CITY           SKY/WX    TMP DP  RH WIND       PRES   REMARKS
YUMA           NOT AVBL
$$

CAZ031-033-041-043-047-048-061-241900-
SOUTHERN CALIFORNIA

CITY           SKY/WX    TMP DP  RH WIND       PRES   REMARKS
DOWNTOWN L.A.  SUNNY     87  39  18 CALM      30.00S
6HR MIN TEMP:  60; 6HR MAX TEMP:  87;

L.A. AIRPORT   SUNNY     83  35  18 CALM      30.01S
6HR MIN TEMP:  62; 6HR MAX TEMP:  83;

SAN DIEGO      SUNNY     81  51  35 NW7       30.01F
6HR MIN TEMP:  63; 6HR MAX TEMP:  82;

BURBANK        SUNNY     83  32  16 SE6       30.03S
6HR MIN TEMP:  58; 6HR MAX TEMP:  83;

ONTARIO        SUNNY     83  31  15 VRB3      30.03S
6HR MIN TEMP:  57; 6HR MAX TEMP:  83;

RIVERSIDE      SUNNY     86  37  17 CALM      30.02F
6HR MIN TEMP:  57; 6HR MAX TEMP:  86;

PALM SPRINGS   SUNNY     90  36  14 VRB7      30.04S
6HR MIN TEMP:  64; 6HR MAX TEMP:  90;

EL CENTRO NAS  SUNNY     87  34  15 VRB3      30.01F
6HR MIN TEMP:  60; 6HR MAX TEMP:  87;

IMPERIAL       SUNNY     88  45  22 VRB6      29.99F
6HR MIN TEMP:  59; 6HR MAX TEMP:  88;

BLYTHE         SUNNY     83  32  16 SE3       30.02F
6HR MIN TEMP:  60; 6HR MAX TEMP:  83;

NEEDLES        SUNNY     85  32  15 N7        30.06F
6HR MIN TEMP:  63; 6HR MAX TEMP:  85;

$$

NVZ020-UTZ003-241900-
SOUTHERN NEVADA-UTAH

CITY           SKY/WX    TMP DP  RH WIND       PRES   REMARKS
LAS VEGAS      SUNNY     78  26  14 E10       30.12F
6HR MIN TEMP:  62; 6HR MAX TEMP:  78;

SALT LAKE CITY PTSUNNY   56  44  64 N13       30.25R
6HR MIN TEMP:  48; 6HR MAX TEMP:  56; 6HR PCP:  0.08;

$$

NMZ009-TXZ055-241900-
NEW MEXICO-WEST TEXAS

CITY           SKY/WX    TMP DP  RH WIND       PRES   REMARKS
ALBUQUERQUE    SUNNY     62  30  29 N5        30.19S
6HR MIN TEMP:  42; 6HR MAX TEMP:  62;

EL PASO        MOSUNNY   78  46  32 W7        30.08F
6HR MIN TEMP:  65; 6HR MAX TEMP:  79;

$$


........................KEY........................
SKY/WX - SKY CONDITION/WEATHER
TMP    - TEMPERATURE IN FAHRENHEIT
DP     - DEW POINT IN FAHRENHEIT
RH     - RELATIVE HUMIDITY IN PERCENT
WIND   - DIRECTION AND SPEED IN MILES PER HOUR (MPH)
VRB    - VARIABLE WIND DIRECTION
PRES   - MEAN SEA LEVEL PRESSURE IN INCHES OF MERCURY
         F - FALLING PRESSURE   R - RISING PRESSURE
         S - STEADY PRESSURE
VSB    - VISIBILITY IN MILES
HX     - HEAT INDEX IN FAHRENHEIT
WCI    - WIND CHILL INDEX IN FAHRENHEIT
TC     - TEMPERATURE IN CELSIUS WHICH IS ALSO KNOWN AS
         TEMPERATURE IN CENTIGRADE
AFB    - AIR FORCE BASE
         LUKE AFB IS LUKE AIR FORCE BASE
         DAVIS-MONTHAN IS DAVIS-MONTHAN AIR FORCE BASE
NAS    - NAVAL AIR STATION
         EL CENTRO NAS IS EL CENTRO NAVAL AIR STATION
N/A    - NOT AVAILABLE




USA.gov is the U.S. government's official web portal to all federal, state and local government web resources and services.